Tracking 26218 objects as of 26-Sep-2022
HD Live streaming from Space Station
objects crossing your sky now

FLOCK 4X 17

Track FLOCK 4X 17 now!
10-day predictions


NORAD ID: 51035
Int'l Code: 2022-002BD
Perigee: 516.5 km
Apogee: 530.2 km
Inclination: 97.5 °
Period: 95.0 minutes
Semi major axis: 6894 km
RCS: Unknown
Launch date: January 13, 2022
Source: United States (US)
Launch site: AIR FORCE EASTERN TEST RANGE (AFETR)
aabbcc
Your satellite tracking list
Your tracking list is empty




NASA's NSSDC Master Catalog

Two Line Element Set (TLE):
1 51035U 22002BD  22268.74439121  .00013654  00000-0  70116-3 0  9998
2 51035  97.4792 334.4620 0009908  87.2968 272.9399 15.16579091 38615
Source of the keplerian elements: AFSPC